This is the latest recevied weather packets stored in our database for station/object WB5LFS-1. If no packets are shown the sender has not sent any weather packets the latest 10 day(s).
| Time | Temp. | Humidity | Pressure | Rain* | Wind** | Luminosity | Snow |
|---|---|---|---|---|---|---|---|
| 1777659115 | 17.78° C | 41% | 1014.4 hPa | 0 mm | - | - | - |
| 1777658215 | 17.78° C | 44% | 1014.5 hPa | 0 mm | - | - | - |
| 1777657315 | 17.22° C | 47% | 1014.6 hPa | 0 mm | - | - | - |
| 1777656415 | 17.78° C | 49% | 1014.7 hPa | 0 mm | - | - | - |
| 1777655515 | 17.22° C | 42% | 1014.6 hPa | 0 mm | - | - | - |
| 1777654615 | 17.22° C | 41% | 1014.7 hPa | 0 mm | - | - | - |
| 1777653715 | 16.67° C | 45% | 1014.9 hPa | 0 mm | - | - | - |
| 1777652815 | 17.22° C | 40% | 1015.1 hPa | 0 mm | - | - | - |
| 1777651915 | 16.67° C | 41% | 1015.2 hPa | 0 mm | - | - | - |
| 1777651015 | 16.67° C | 48% | 1015.5 hPa | 0 mm | - | - | - |
| 1777650115 | 16.11° C | 43% | 1015.6 hPa | 0 mm | - | - | - |
| 1777649215 | 16.11° C | 43% | 1015.9 hPa | 0 mm | - | - | - |
| 1777648315 | 15.56° C | 46% | 1015.9 hPa | 0 mm | - | - | - |
| 1777647415 | 15.56° C | 47% | 1016 hPa | 0 mm | - | - | - |
| 1777646515 | 15° C | 44% | 1016 hPa | 0 mm | - | - | - |
| 1777645615 | 14.44° C | 50% | 1016 hPa | 0 mm | - | - | - |
| 1777644715 | 14.44° C | 50% | 1016 hPa | 0 mm | - | - | - |
| 1777643815 | 13.89° C | 54% | 1015.9 hPa | 0 mm | - | - | - |
| 1777642915 | 13.89° C | 56% | 1016.1 hPa | 0 mm | - | - | - |
| 1777642015 | 13.33° C | 59% | 1016.1 hPa | 0 mm | - | - | - |
| 1777641115 | 12.78° C | 64% | 1016.1 hPa | 0 mm | - | - | - |
| 1777640215 | 12.22° C | 68% | 1016 hPa | 0 mm | - | - | - |
| 1777639315 | 11.67° C | 69% | 1016.2 hPa | 0 mm | - | - | - |
| 1777638415 | 11.67° C | 69% | 1016 hPa | 0 mm | - | - | - |
| 1777637515 | 10.56° C | 71% | 1016 hPa | 0 mm | - | - | - |
* Rain latest hour (hover to see other rain measurements)
** Current wind speed in m/s (hover to see current wind gust speed)